This is the latest recevied weather packets stored in our database for station/object K0QED. If no packets are shown the sender has not sent any weather packets the latest 10 day(s).
| Time | Temp. | Humidity | Pressure | Rain* | Wind** | Luminosity | Snow |
|---|---|---|---|---|---|---|---|
| 1788471704 | 30° C | 21% | 1022.1 hPa | 0 mm | - | 494 W/m² | - |
| 1788471399 | 29.44° C | 22% | 1022.5 hPa | 0 mm | - | 514 W/m² | - |
| 1788471095 | 28.89° C | 21% | 1022.6 hPa | 0 mm | - | 516 W/m² | - |
| 1788470790 | 28.89° C | 22% | 1022.6 hPa | 0 mm | - | 500 W/m² | - |
| 1788470486 | 27.78° C | 23% | 1022.5 hPa | 0 mm | - | 527 W/m² | - |
| 1788470180 | 28.33° C | 23% | 1022.5 hPa | 0 mm | - | 550 W/m² | - |
| 1788469878 | 28.33° C | 23% | 1022.7 hPa | 0 mm | - | 558 W/m² | - |
| 1788469573 | 30° C | 22% | 1022.9 hPa | 0 mm | - | 547 W/m² | - |
| 1788469268 | 29.44° C | 22% | 1023 hPa | 0 mm | - | 544 W/m² | - |
| 1788468967 | 27.78° C | 23% | 1022.7 hPa | 0 mm | - | 550 W/m² | - |
| 1788468661 | 27.78° C | 24% | 1022.9 hPa | 0 mm | - | 547 W/m² | - |
| 1788468357 | 27.78° C | 22% | 1023.1 hPa | 0 mm | - | 542 W/m² | - |
| 1788468052 | 28.89° C | 22% | 1023.1 hPa | 0 mm | - | 570 W/m² | - |
| 1788467748 | 28.89° C | 22% | 1023.2 hPa | 0 mm | - | 580 W/m² | - |
| 1788467442 | 28.33° C | 22% | 1023.2 hPa | 0 mm | - | 583 W/m² | - |
| 1788467138 | 28.33° C | 22% | 1023.2 hPa | 0 mm | - | 598 W/m² | - |
| 1788466833 | 28.89° C | 22% | 1023.4 hPa | 0 mm | - | 615 W/m² | - |
| 1788466528 | 28.33° C | 23% | 1023.2 hPa | 0 mm | - | 615 W/m² | - |
| 1788466226 | 28.33° C | 21% | 1023.5 hPa | 0 mm | - | 594 W/m² | - |
| 1788465922 | 28.89° C | 22% | 1023.6 hPa | 0 mm | - | 609 W/m² | - |
| 1788465620 | 28.33° C | 23% | 1023.4 hPa | 0 mm | - | 644 W/m² | - |
| 1788465313 | 28.33° C | 23% | 1023.5 hPa | 0 mm | - | 661 W/m² | - |
| 1788465009 | 28.33° C | 23% | 1023.2 hPa | 0 mm | - | 662 W/m² | - |
| 1788464703 | 28.33° C | 23% | 1023.4 hPa | 0 mm | - | 661 W/m² | - |
| 1788464399 | 27.78° C | 22% | 1023.5 hPa | 0 mm | - | 657 W/m² | - |
* Rain latest hour (hover to see other rain measurements)
** Current wind speed in m/s (hover to see current wind gust speed)